User: anonymous   Login
Location: Knowlton
(51.2333°N, 1.2667°E)
Time: 02:26:54
(UTC+00:00)
Language:

COSMOS 2428 - Orbit

View from above orbital plane
View from above orbital plane
View from above satellite
View from above satellite

Ground track
Ground track

The orbit data is extracted from the following two-line orbital elements,

1 31792U 07029A   21206.79455029  .00000322  00000-0  20099-3 0  9992
2 31792  70.9053 145.4207 0009234 196.9564 163.1250 14.12314250725813
Epoch (UTC): 25 July 2021 19:04:09
Eccentricity: 0.0009234
inclination: 70.9053°
perigee height: 845 km
apogee height: 858 km
right ascension of ascending node: 145.4207°
argument of perigee: 196.9564°
revolutions per day: 14.12314250
mean anomaly at epoch: 163.1250°
orbit number at epoch: 72581

The dashed part of the orbit path shows where the satellite is in the earth's shadow,  

DLR